Time,TemperatureF,DewpointF,PressureIn,WindDirection,WindDirectionDegrees,WindSpeedMPH,WindSpeedGustMPH,Humidity,HourlyPrecipIn,Conditions,Clouds,dailyrainin,SoftwareType,DateUTC
2013-03-13 00:00:00,49.5,20.0,29.94,North,0,0.0,0.0,31,0.00,CLR,,0.67,WeatherDisplay:10.37,2013-03-13 04:00:00,
2013-03-13 00:05:00,49.1,20.5,29.94,NNW,338,0.0,0.0,32,0.00,RA,,0.00,WeatherDisplay:10.37,2013-03-13 04:05:00,
2013-03-13 00:10:00,48.7,20.9,29.94,NNW,338,0.0,0.0,33,0.00,CLR,,0.00,WeatherDisplay:10.37,2013-03-13 04:10:00,
2013-03-13 00:15:00,48.6,20.0,29.94,SW,225,0.0,0.0,32,0.00,CLR,,0.00,WeatherDisplay:10.37,2013-03-13 04:15:00,
2013-03-13 00:20:00,48.4,22.6,29.94,NW,315,0.0,0.0,36,0.00,CLR,,0.00,WeatherDisplay:10.37,2013-03-13 04:20:00,
2013-03-13 00:25:00,48.4,19.8,29.94,North,0,0.0,0.0,32,0.00,CLR,,0.00,WeatherDisplay:10.37,2013-03-13 04:25:00,
2013-03-13 00:30:00,48.0,21.6,29.94,NE,45,0.0,0.0,35,0.00,CLR,,0.00,WeatherDisplay:10.37,2013-03-13 04:30:00,
2013-03-13 00:35:00,47.7,22.0,29.94,NNW,338,0.0,0.0,36,0.00,CLR,,0.00,WeatherDisplay:10.37,2013-03-13 04:35:00,
2013-03-13 00:40:00,47.5,22.5,29.94,NNW,338,0.0,0.0,37,0.00,CLR,,0.00,WeatherDisplay:10.37,2013-03-13 04:40:00,
2013-03-13 00:45:00,47.3,22.3,29.94,NNW,338,0.0,0.0,37,0.00,CLR,,0.00,WeatherDisplay:10.37,2013-03-13 04:45:00,
2013-03-13 00:50:00,47.1,22.1,29.94,NNW,338,0.0,0.0,37,0.00,CLR,,0.00,WeatherDisplay:10.37,2013-03-13 04:50:00,
2013-03-13 00:55:00,47.3,21.7,29.94,NNW,338,0.0,0.0,36,0.00,CLR,,0.00,WeatherDisplay:10.37,2013-03-13 04:55:00,
2013-03-13 01:00:00,47.1,22.1,29.94,WNW,292,0.0,0.0,37,0.00,CLR,,0.00,WeatherDisplay:10.37,2013-03-13 05:00:00,
2013-03-13 01:05:00,46.9,22.0,29.94,NNW,338,0.0,0.0,37,0.00,CLR,,0.00,WeatherDisplay:10.37,2013-03-13 05:05:00,
2013-03-13 01:10:00,46.8,21.8,29.94,NNW,338,0.0,0.0,37,0.00,CLR,,0.00,WeatherDisplay:10.37,2013-03-13 05:10:00,
2013-03-13 01:15:00,46.8,21.8,29.94,NNW,338,0.0,0.0,37,0.00,CLR,,0.00,WeatherDisplay:10.37,2013-03-13 05:15:00,
2013-03-13 01:20:00,46.4,21.5,29.94,NNW,338,0.0,0.0,37,0.00,CLR,,0.00,WeatherDisplay:10.37,2013-03-13 05:20:00,
2013-03-13 01:25:00,46.0,22.4,29.94,NNW,338,0.0,0.0,39,0.00,CLR,,0.00,WeatherDisplay:10.37,2013-03-13 05:25:00,
2013-03-13 01:30:00,46.0,21.8,29.94,NNW,338,0.0,0.0,38,0.00,CLR,,0.00,WeatherDisplay:10.37,2013-03-13 05:30:00,
2013-03-13 01:35:00,46.0,21.8,29.94,NNW,338,0.0,0.0,38,0.00,CLR,,0.00,WeatherDisplay:10.37,2013-03-13 05:35:00,
2013-03-13 01:40:00,45.9,22.3,29.94,NNW,338,0.0,0.0,39,0.00,CLR,,0.00,WeatherDisplay:10.37,2013-03-13 05:40:00,
2013-03-13 01:45:00,45.3,21.8,29.94,NNW,338,0.0,0.0,39,0.00,CLR,,0.00,WeatherDisplay:10.37,2013-03-13 05:45:00,
2013-03-13 01:50:00,45.1,22.2,29.94,NNW,338,0.0,0.0,40,0.00,CLR,,0.00,WeatherDisplay:10.37,2013-03-13 05:50:00,
2013-03-13 01:55:00,44.8,22.5,29.94,NNW,338,0.0,0.0,41,0.00,CLR,,0.00,WeatherDisplay:10.37,2013-03-13 05:55:00,
2013-03-13 02:00:00,44.4,22.7,29.97,NNW,338,0.0,0.0,42,0.00,CLR,,0.00,WeatherDisplay:10.37,2013-03-13 06:00:00,
2013-03-13 02:05:00,44.1,24.1,29.97,NNW,338,0.0,0.0,45,0.00,CLR,,0.00,WeatherDisplay:10.37,2013-03-13 06:05:00,
2013-03-13 02:11:00,44.1,23.5,29.97,NNW,338,0.0,0.0,44,0.00,CLR,,0.00,WeatherDisplay:10.37,2013-03-13 06:11:00,
2013-03-13 02:16:00,43.5,23.6,29.97,NNW,338,0.0,0.0,45,0.00,CLR,,0.00,WeatherDisplay:10.37,2013-03-13 06:16:00,
2013-03-13 02:21:00,43.3,22.9,29.97,NNW,338,0.0,0.0,44,0.00,CLR,,0.00,WeatherDisplay:10.37,2013-03-13 06:21:00,
2013-03-13 02:27:00,43.0,23.1,29.97,NNW,338,0.0,0.0,45,0.00,CLR,,0.00,WeatherDisplay:10.37,2013-03-13 06:27:00,
2013-03-13 02:32:00,42.8,23.9,29.97,NNW,338,0.0,0.0,47,0.00,CLR,,0.00,WeatherDisplay:10.37,2013-03-13 06:32:00,
2013-03-13 02:37:00,42.8,23.4,29.97,NNW,338,0.0,0.0,46,0.00,CLR,,0.00,WeatherDisplay:10.37,2013-03-13 06:37:00,
2013-03-13 02:42:00,42.4,24.1,29.97,NNW,338,0.0,0.0,48,0.00,CLR,,0.00,WeatherDisplay:10.37,2013-03-13 06:42:00,
2013-03-13 02:47:00,42.4,23.6,29.97,NNW,338,0.0,0.0,47,0.00,CLR,,0.00,WeatherDisplay:10.37,2013-03-13 06:47:00,
2013-03-13 02:52:00,42.3,24.4,29.97,NNW,338,0.0,0.0,49,0.00,CLR,,0.00,WeatherDisplay:10.37,2013-03-13 06:52:00,
2013-03-13 02:58:00,42.6,23.8,29.97,NNW,338,0.0,0.0,47,0.00,CLR,,0.00,WeatherDisplay:10.37,2013-03-13 06:58:00,
2013-03-13 03:03:00,42.8,22.9,29.97,NNW,338,0.0,0.0,45,0.00,CLR,,0.00,WeatherDisplay:10.37,2013-03-13 07:03:00,
2013-03-13 03:08:00,42.6,23.3,29.97,NNW,338,0.0,0.0,46,0.00,CLR,,0.00,WeatherDisplay:10.37,2013-03-13 07:08:00,
2013-03-13 03:13:00,42.6,23.8,29.97,NNW,338,0.0,0.0,47,0.00,CLR,,0.00,WeatherDisplay:10.37,2013-03-13 07:13:00,
2013-03-13 03:18:00,42.4,24.6,29.97,NNW,338,0.0,0.0,49,0.00,CLR,,0.00,WeatherDisplay:10.37,2013-03-13 07:18:00,
2013-03-13 03:23:00,42.3,24.4,29.97,NNW,338,0.0,0.0,49,0.00,CLR,,0.00,WeatherDisplay:10.37,2013-03-13 07:23:00,
2013-03-13 03:28:00,41.9,24.6,29.97,NNW,338,0.0,0.0,50,0.00,CLR,,0.00,WeatherDisplay:10.37,2013-03-13 07:28:00,
2013-03-13 03:33:00,41.7,24.4,29.97,NNW,338,0.0,0.0,50,0.00,CLR,,0.00,WeatherDisplay:10.37,2013-03-13 07:33:00,
2013-03-13 03:38:00,41.5,24.7,29.97,NNW,338,0.0,0.0,51,0.00,CLR,,0.00,WeatherDisplay:10.37,2013-03-13 07:38:00,
2013-03-13 03:43:00,41.4,24.6,29.97,NNW,338,0.0,0.0,51,0.00,CLR,,0.00,WeatherDisplay:10.37,2013-03-13 07:43:00,
2013-03-13 03:48:00,41.2,23.9,29.97,NNW,338,0.0,0.0,50,0.00,CLR,,0.00,WeatherDisplay:10.37,2013-03-13 07:48:00,
2013-03-13 03:53:00,40.8,24.1,29.97,NNW,338,0.0,0.0,51,0.00,CLR,,0.00,WeatherDisplay:10.37,2013-03-13 07:53:00,
2013-03-13 03:58:00,40.6,24.4,29.97,NNW,338,0.0,0.0,52,0.00,CLR,,0.00,WeatherDisplay:10.37,2013-03-13 07:58:00,
2013-03-13 04:03:00,40.6,24.4,29.97,NNW,338,0.0,0.0,52,0.00,CLR,,0.00,WeatherDisplay:10.37,2013-03-13 08:03:00,
2013-03-13 04:08:00,40.3,24.5,29.97,NNW,338,0.0,0.0,53,0.00,CLR,,0.00,WeatherDisplay:10.37,2013-03-13 08:08:00,
2013-03-13 04:13:00,40.1,24.3,29.97,NNW,338,0.0,0.0,53,0.00,CLR,,0.00,WeatherDisplay:10.37,2013-03-13 08:13:00,
2013-03-13 04:18:00,39.9,24.2,29.97,NNW,338,0.0,0.0,53,0.00,CLR,,0.00,WeatherDisplay:10.37,2013-03-13 08:18:00,
2013-03-13 04:23:00,39.7,24.0,29.97,NNW,338,0.0,0.0,53,0.00,CLR,,0.00,WeatherDisplay:10.37,2013-03-13 08:23:00,
2013-03-13 04:28:00,39.4,24.1,29.97,NNW,338,0.0,0.0,54,0.00,CLR,,0.00,WeatherDisplay:10.37,2013-03-13 08:28:00,
2013-03-13 04:33:00,39.2,24.4,29.97,NNW,338,0.0,0.0,55,0.00,CLR,,0.00,WeatherDisplay:10.37,2013-03-13 08:33:00,
2013-03-13 04:38:00,38.8,24.0,29.97,NNW,338,0.0,0.0,55,0.00,CLR,,0.00,WeatherDisplay:10.37,2013-03-13 08:38:00,
2013-03-13 04:43:00,38.7,24.3,30.00,NNW,338,0.0,0.0,56,0.00,CLR,,0.00,WeatherDisplay:10.37,2013-03-13 08:43:00,
2013-03-13 04:48:00,38.5,24.6,30.00,NNW,338,0.0,0.0,57,0.00,CLR,,0.00,WeatherDisplay:10.37,2013-03-13 08:48:00,
2013-03-13 04:53:00,38.1,24.6,30.00,NNW,338,0.0,0.0,58,0.00,CLR,,0.00,WeatherDisplay:10.37,2013-03-13 08:53:00,
2013-03-13 04:58:00,37.9,24.9,30.00,NNW,338,0.0,0.0,59,0.00,CLR,,0.00,WeatherDisplay:10.37,2013-03-13 08:58:00,
2013-03-13 05:03:00,37.9,25.3,30.00,NNW,338,0.0,0.0,60,0.00,CLR,,0.00,WeatherDisplay:10.37,2013-03-13 09:03:00,
2013-03-13 05:08:00,37.8,25.1,30.00,NNW,338,0.0,0.0,60,0.00,CLR,,0.00,WeatherDisplay:10.37,2013-03-13 09:08:00,
2013-03-13 05:13:00,37.6,25.3,30.00,NNW,338,0.0,0.0,61,0.00,CLR,,0.00,WeatherDisplay:10.37,2013-03-13 09:13:00,
2013-03-13 05:18:00,37.6,25.7,30.00,NNW,338,0.0,0.0,62,0.00,CLR,,0.00,WeatherDisplay:10.37,2013-03-13 09:18:00,
2013-03-13 05:23:00,37.4,25.6,30.00,NNW,338,0.0,0.0,62,0.00,CLR,,0.00,WeatherDisplay:10.37,2013-03-13 09:23:00,
2013-03-13 05:28:00,37.2,25.8,30.00,NNW,338,0.0,0.0,63,0.00,CLR,,0.00,WeatherDisplay:10.37,2013-03-13 09:28:00,
2013-03-13 05:33:00,37.0,26.0,30.00,NNW,338,0.0,0.0,64,0.00,CLR,,0.00,WeatherDisplay:10.37,2013-03-13 09:33:00,
2013-03-13 05:38:00,36.9,26.2,30.00,NNW,338,0.0,0.0,65,0.00,CLR,,0.00,WeatherDisplay:10.37,2013-03-13 09:38:00,
2013-03-13 05:43:00,36.5,26.2,30.00,NNW,338,0.0,0.0,66,0.00,CLR,,0.00,WeatherDisplay:10.37,2013-03-13 09:43:00,
2013-03-13 05:48:00,36.3,26.4,30.00,NNW,338,0.0,0.0,67,0.00,CLR,,0.00,WeatherDisplay:10.37,2013-03-13 09:48:00,
2013-03-13 05:53:00,36.1,26.9,30.00,NNW,338,0.0,0.0,69,0.00,CLR,,0.00,WeatherDisplay:10.37,2013-03-13 09:53:00,
2013-03-13 05:58:00,36.1,27.3,30.00,NNW,338,0.0,0.0,70,0.00,CLR,,0.00,WeatherDisplay:10.37,2013-03-13 09:58:00,
2013-03-13 06:03:00,35.8,27.3,30.00,NNW,338,0.0,0.0,71,0.00,CLR,,0.00,WeatherDisplay:10.37,2013-03-13 10:03:00,
2013-03-13 06:08:00,35.6,27.5,30.00,NNW,338,0.0,0.0,72,0.00,CLR,,0.00,WeatherDisplay:10.37,2013-03-13 10:08:00,
2013-03-13 06:13:00,35.4,27.6,30.00,NNW,338,0.0,0.0,73,0.00,CLR,,0.00,WeatherDisplay:10.37,2013-03-13 10:13:00,
2013-03-13 06:18:00,35.2,27.8,30.00,NNW,338,0.0,0.0,74,0.00,CLR,,0.00,WeatherDisplay:10.37,2013-03-13 10:18:00,
2013-03-13 06:23:00,35.1,27.6,30.00,NNW,338,0.0,0.0,74,0.00,CLR,,0.00,WeatherDisplay:10.37,2013-03-13 10:23:00,
2013-03-13 06:28:00,35.1,27.9,30.00,NNW,338,0.0,0.0,75,0.00,CLR,,0.00,WeatherDisplay:10.37,2013-03-13 10:28:00,
2013-03-13 06:33:00,34.9,27.8,30.00,NNW,338,0.0,0.0,75,0.00,CLR,,0.00,WeatherDisplay:10.37,2013-03-13 10:33:00,
2013-03-13 06:38:00,34.9,28.1,30.00,NNW,338,0.0,0.0,76,0.00,CLR,,0.00,WeatherDisplay:10.37,2013-03-13 10:38:00,
2013-03-13 06:43:00,34.7,27.9,30.00,NNW,338,0.0,0.0,76,0.00,CLR,,0.00,WeatherDisplay:10.37,2013-03-13 10:43:00,
2013-03-13 06:48:00,34.5,28.1,30.00,NNW,338,0.0,0.0,77,0.00,CLR,,0.00,WeatherDisplay:10.37,2013-03-13 10:48:00,
2013-03-13 06:53:00,34.5,28.1,30.00,NNW,338,0.0,0.0,77,0.00,CLR,,0.00,WeatherDisplay:10.37,2013-03-13 10:53:00,
2013-03-13 06:58:00,34.2,28.0,30.00,NNW,338,0.0,0.0,78,0.00,CLR,,0.00,WeatherDisplay:10.37,2013-03-13 10:58:00,
2013-03-13 07:03:00,34.0,28.2,30.00,NNW,338,0.0,0.0,79,0.00,CLR,,0.00,WeatherDisplay:10.37,2013-03-13 11:03:00,
2013-03-13 07:08:00,34.0,28.2,30.00,NNW,338,0.0,0.0,79,0.00,CLR,,0.00,WeatherDisplay:10.37,2013-03-13 11:08:00,
2013-03-13 07:13:00,33.8,28.3,30.03,NNW,338,0.0,0.0,80,0.00,CLR,,0.00,WeatherDisplay:10.37,2013-03-13 11:13:00,
2013-03-13 07:18:00,33.8,28.3,30.03,NNW,338,0.0,0.0,80,0.00,CLR,,0.00,WeatherDisplay:10.37,2013-03-13 11:18:00,
2013-03-13 07:23:00,33.6,28.4,30.03,NNW,338,0.0,0.0,81,0.00,CLR,,0.00,WeatherDisplay:10.37,2013-03-13 11:23:00,
2013-03-13 07:28:00,33.4,28.5,30.03,NNW,338,0.0,0.0,82,0.00,CLR,,0.00,WeatherDisplay:10.37,2013-03-13 11:28:00,
2013-03-13 07:33:00,33.4,28.5,30.03,NNW,338,0.0,0.0,82,0.00,CLR,,0.00,WeatherDisplay:10.37,2013-03-13 11:33:00,
2013-03-13 07:38:00,33.3,28.7,30.03,NNW,338,0.0,0.0,83,0.00,CLR,,0.00,WeatherDisplay:10.37,2013-03-13 11:38:00,
2013-03-13 07:43:00,33.3,28.9,30.03,NNW,338,0.0,0.0,84,0.00,CLR,,0.00,WeatherDisplay:10.37,2013-03-13 11:43:00,
2013-03-13 07:48:00,33.1,28.8,30.03,NNW,338,0.0,0.0,84,0.00,CLR,,0.00,WeatherDisplay:10.37,2013-03-13 11:48:00,
2013-03-13 07:53:00,33.1,29.1,30.03,NNW,338,0.0,0.0,85,0.00,CLR,,0.00,WeatherDisplay:10.37,2013-03-13 11:53:00,
2013-03-13 07:58:00,33.1,29.3,30.03,NNW,338,0.0,0.0,86,0.00,CLR,,0.00,WeatherDisplay:10.37,2013-03-13 11:58:00,
2013-03-13 08:03:00,33.1,29.3,30.03,NNW,338,0.0,0.0,86,0.00,CLR,,0.00,WeatherDisplay:10.37,2013-03-13 12:03:00,
2013-03-13 08:08:00,33.3,29.8,30.03,NNW,338,0.0,0.0,87,0.00,CLR,,0.00,WeatherDisplay:10.37,2013-03-13 12:08:00,
2013-03-13 08:13:00,33.4,30.0,30.03,NNW,338,0.0,0.0,87,0.00,CLR,,0.00,WeatherDisplay:10.37,2013-03-13 12:13:00,
2013-03-13 08:18:00,33.6,30.2,30.03,NNW,338,0.0,0.0,87,0.00,CLR,,0.00,WeatherDisplay:10.37,2013-03-13 12:18:00,
2013-03-13 08:23:00,33.8,30.3,30.03,NNW,338,0.0,0.0,87,0.00,CLR,,0.00,WeatherDisplay:10.37,2013-03-13 12:23:00,
2013-03-13 08:28:00,34.0,30.8,30.03,NNW,338,0.0,0.0,88,0.00,CLR,,0.00,WeatherDisplay:10.37,2013-03-13 12:28:00,
2013-03-13 08:33:00,34.0,30.8,30.03,NNW,338,0.0,0.0,88,0.00,CLR,,0.00,WeatherDisplay:10.37,2013-03-13 12:33:00,
2013-03-13 08:38:00,34.5,31.3,30.03,NNW,338,0.0,0.0,88,0.00,CLR,,0.00,WeatherDisplay:10.37,2013-03-13 12:38:00,
2013-03-13 08:43:00,34.5,31.3,30.03,NNW,338,0.0,0.0,88,0.00,CLR,,0.00,WeatherDisplay:10.37,2013-03-13 12:43:00,
2013-03-13 08:48:00,34.9,31.7,30.03,NNW,338,0.0,0.0,88,0.00,CLR,,0.00,WeatherDisplay:10.37,2013-03-13 12:48:00,
2013-03-13 08:53:00,35.8,32.6,30.03,NNW,338,0.0,0.0,88,0.00,CLR,,0.00,WeatherDisplay:10.37,2013-03-13 12:53:00,
2013-03-13 08:58:00,36.1,32.9,30.03,NNW,338,0.0,0.0,88,0.00,CLR,,0.00,WeatherDisplay:10.37,2013-03-13 12:58:00,
2013-03-13 09:03:00,36.5,33.3,30.03,NNW,338,0.0,0.0,88,0.00,CLR,,0.00,WeatherDisplay:10.37,2013-03-13 13:03:00,
2013-03-13 09:08:00,37.0,33.5,30.03,NNW,338,0.0,0.0,87,0.00,CLR,,0.00,WeatherDisplay:10.37,2013-03-13 13:08:00,
2013-03-13 09:13:00,37.6,33.8,30.03,NNW,338,0.0,0.0,86,0.00,CLR,,0.00,WeatherDisplay:10.37,2013-03-13 13:13:00,
2013-03-13 09:18:00,38.5,34.4,30.03,NNW,338,0.0,0.0,85,0.00,CLR,,0.00,WeatherDisplay:10.37,2013-03-13 13:18:00,
2013-03-13 09:23:00,40.1,34.7,30.03,NNW,338,0.0,0.0,81,0.00,CLR,,0.00,WeatherDisplay:10.37,2013-03-13 13:23:00,
2013-03-13 09:28:00,41.5,33.9,30.03,NNW,338,0.0,0.0,74,0.00,CLR,,0.00,WeatherDisplay:10.37,2013-03-13 13:28:00,
2013-03-13 09:33:00,42.8,32.6,30.03,NNW,338,0.0,0.0,67,0.00,CLR,,0.00,WeatherDisplay:10.37,2013-03-13 13:33:00,
2013-03-13 09:38:00,44.2,30.0,30.03,NNW,338,0.0,0.0,57,0.00,CLR,,0.00,WeatherDisplay:10.37,2013-03-13 13:38:00,
2013-03-13 09:43:00,46.2,28.6,30.03,NNW,338,0.0,0.0,50,0.00,CLR,,0.00,WeatherDisplay:10.37,2013-03-13 13:43:00,
2013-03-13 09:48:00,46.9,27.2,30.03,NNW,338,0.0,0.0,46,0.00,CLR,,0.00,WeatherDisplay:10.37,2013-03-13 13:48:00,
2013-03-13 09:53:00,47.7,26.8,30.03,NNW,338,0.0,0.0,44,0.00,CLR,,0.00,WeatherDisplay:10.37,2013-03-13 13:53:00,
2013-03-13 09:58:00,48.7,26.6,30.03,NNW,338,0.0,0.0,42,0.00,CLR,,0.00,WeatherDisplay:10.37,2013-03-13 13:58:00,
2013-03-13 10:03:00,49.1,24.6,30.03,South,180,2.3,0.0,38,0.00,CLR,,0.00,WeatherDisplay:10.37,2013-03-13 14:03:00,
2013-03-13 10:08:00,50.4,25.0,30.03,West,270,0.0,0.0,37,0.00,CLR,,0.00,WeatherDisplay:10.37,2013-03-13 14:08:00,
2013-03-13 10:13:00,51.1,25.0,30.03,West,270,0.0,0.0,36,0.00,CLR,,0.00,WeatherDisplay:10.37,2013-03-13 14:13:00,
2013-03-13 10:18:00,52.2,25.3,30.03,South,180,0.0,0.0,35,0.00,CLR,,0.00,WeatherDisplay:10.37,2013-03-13 14:18:00,
2013-03-13 10:23:00,52.0,19.8,30.03,SSW,202,2.3,0.0,28,0.00,CLR,,0.00,WeatherDisplay:10.37,2013-03-13 14:23:00,
2013-03-13 10:28:00,52.7,21.3,30.03,SW,225,0.0,0.0,29,0.00,CLR,,0.00,WeatherDisplay:10.37,2013-03-13 14:28:00,
2013-03-13 10:33:00,53.1,19.9,30.03,West,270,0.0,0.0,27,0.00,CLR,,0.00,WeatherDisplay:10.37,2013-03-13 14:33:00,
2013-03-13 10:38:00,52.9,18.9,30.03,NNW,338,0.0,0.0,26,0.00,CLR,,0.00,WeatherDisplay:10.37,2013-03-13 14:38:00,
2013-03-13 10:43:00,53.1,19.0,30.03,NNW,338,0.0,0.0,26,0.00,CLR,,0.00,WeatherDisplay:10.37,2013-03-13 14:43:00,
2013-03-13 10:48:00,53.1,19.0,30.03,NNW,338,0.0,0.0,26,0.00,CLR,,0.00,WeatherDisplay:10.37,2013-03-13 14:48:00,
2013-03-13 10:53:00,53.4,19.3,30.03,NNW,338,0.0,0.0,26,0.00,CLR,,0.00,WeatherDisplay:10.37,2013-03-13 14:53:00,
2013-03-13 10:58:00,53.6,19.5,30.03,NNW,338,0.0,0.0,26,0.00,CLR,,0.00,WeatherDisplay:10.37,2013-03-13 14:58:00,
2013-03-13 11:03:00,54.0,18.9,30.03,NNW,338,0.0,0.0,25,0.00,CLR,,0.00,WeatherDisplay:10.37,2013-03-13 15:03:00,
2013-03-13 11:08:00,54.7,20.4,30.03,NNW,338,0.0,0.0,26,0.00,CLR,,0.00,WeatherDisplay:10.37,2013-03-13 15:08:00,
2013-03-13 11:13:00,55.6,17.3,30.03,WSW,248,2.3,0.0,22,0.00,CLR,,0.00,WeatherDisplay:10.37,2013-03-13 15:13:00,
2013-03-13 11:18:00,56.8,21.3,30.03,WNW,292,0.0,0.0,25,0.00,CLR,,0.00,WeatherDisplay:10.37,2013-03-13 15:18:00,
2013-03-13 11:23:00,57.2,18.6,30.03,West,270,0.0,0.0,22,0.00,CLR,,0.00,WeatherDisplay:10.37,2013-03-13 15:23:00,
2013-03-13 11:28:00,56.3,15.7,30.00,North,0,0.0,0.0,20,0.00,CLR,,0.00,WeatherDisplay:10.37,2013-03-13 15:28:00,
2013-03-13 11:33:00,57.6,15.5,30.00,NNW,338,0.0,0.0,19,0.00,CLR,,0.00,WeatherDisplay:10.37,2013-03-13 15:33:00,
2013-03-13 11:38:00,58.1,16.0,30.00,WNW,292,3.5,0.0,19,0.00,CLR,,0.00,WeatherDisplay:10.37,2013-03-13 15:38:00,
2013-03-13 11:43:00,58.6,16.4,30.00,West,270,4.6,4.6,19,0.00,CLR,,0.00,WeatherDisplay:10.37,2013-03-13 15:43:00,
2013-03-13 11:48:00,58.5,16.3,30.00,NW,315,0.0,0.0,19,0.00,CLR,,0.00,WeatherDisplay:10.37,2013-03-13 15:48:00,
2013-03-13 11:53:00,58.8,16.6,30.00,NW,315,0.0,0.0,19,0.00,CLR,,0.00,WeatherDisplay:10.37,2013-03-13 15:53:00,
2013-03-13 11:58:00,59.7,17.3,30.00,SSE,158,3.1,0.0,19,0.00,CLR,,0.00,WeatherDisplay:10.37,2013-03-13 15:58:00,
2013-03-13 12:03:00,58.3,16.1,30.00,NNW,338,0.0,0.0,19,0.00,CLR,,0.00,WeatherDisplay:10.37,2013-03-13 16:03:00,
2013-03-13 12:08:00,59.7,17.3,30.00,South,180,4.0,0.0,19,0.00,CLR,,0.00,WeatherDisplay:10.37,2013-03-13 16:08:00,
2013-03-13 12:13:00,58.3,16.1,30.00,ESE,112,0.0,0.0,19,0.00,CLR,,0.00,WeatherDisplay:10.37,2013-03-13 16:13:00,
2013-03-13 12:18:00,58.3,16.1,30.00,WNW,292,0.0,0.0,19,0.00,CLR,,0.00,WeatherDisplay:10.37,2013-03-13 16:18:00,
2013-03-13 12:23:00,56.7,16.0,30.00,NW,315,2.2,0.0,20,0.00,CLR,,0.00,WeatherDisplay:10.37,2013-03-13 16:23:00,
2013-03-13 12:28:00,56.7,16.0,30.00,West,270,0.0,0.0,20,0.00,CLR,,0.00,WeatherDisplay:10.37,2013-03-13 16:28:00,
2013-03-13 12:34:00,56.3,15.7,30.00,NNW,338,0.0,0.0,20,0.00,CLR,,0.00,WeatherDisplay:10.37,2013-03-13 16:34:00,
2013-03-13 12:39:00,56.3,15.7,30.00,South,180,0.0,0.0,20,0.00,CLR,,0.00,WeatherDisplay:10.37,2013-03-13 16:39:00,
2013-03-13 12:44:00,55.6,15.1,30.00,SSE,158,4.6,0.0,20,0.00,CLR,,0.00,WeatherDisplay:10.37,2013-03-13 16:44:00,
2013-03-13 12:49:00,56.7,16.0,30.00,WNW,292,0.0,0.0,20,0.00,CLR,,0.00,WeatherDisplay:10.37,2013-03-13 16:49:00,
2013-03-13 12:54:00,56.3,15.7,30.00,North,0,0.0,0.0,20,0.00,CLR,,0.00,WeatherDisplay:10.37,2013-03-13 16:54:00,
2013-03-13 12:59:00,57.4,15.4,30.00,ENE,68,0.0,0.0,19,0.00,CLR,,0.00,WeatherDisplay:10.37,2013-03-13 16:59:00,
2013-03-13 13:04:00,57.2,15.2,30.00,West,270,0.0,0.0,19,0.00,CLR,,0.00,WeatherDisplay:10.37,2013-03-13 17:04:00,
2013-03-13 13:09:00,57.6,15.5,30.00,ENE,68,2.3,0.0,19,0.00,CLR,,0.00,WeatherDisplay:10.37,2013-03-13 17:09:00,
2013-03-13 13:14:00,57.7,15.7,30.00,NNW,338,0.0,0.0,19,0.00,CLR,,0.00,WeatherDisplay:10.37,2013-03-13 17:14:00,
2013-03-13 13:19:00,57.2,15.2,30.00,SSE,158,0.0,0.0,19,0.00,CLR,,0.00,WeatherDisplay:10.37,2013-03-13 17:19:00,
2013-03-13 13:24:00,59.0,16.7,30.00,NNE,22,0.0,0.0,19,0.00,CLR,,0.00,WeatherDisplay:10.37,2013-03-13 17:24:00,
2013-03-13 13:29:00,59.7,17.3,29.97,SE,135,0.0,0.0,19,0.00,CLR,,0.00,WeatherDisplay:10.37,2013-03-13 17:29:00,
2013-03-13 13:34:00,59.9,17.5,29.97,West,270,4.9,0.0,19,0.00,CLR,,0.00,WeatherDisplay:10.37,2013-03-13 17:34:00,
2013-03-13 13:39:00,59.2,16.9,29.97,South,180,0.0,0.0,19,0.00,CLR,,0.00,WeatherDisplay:10.37,2013-03-13 17:39:00,
2013-03-13 13:44:00,58.5,16.3,29.97,SSE,158,0.0,0.0,19,0.00,CLR,,0.00,WeatherDisplay:10.37,2013-03-13 17:44:00,
2013-03-13 13:49:00,58.1,16.0,29.97,NNW,338,4.6,4.6,19,0.00,CLR,,0.00,WeatherDisplay:10.37,2013-03-13 17:49:00,
2013-03-13 13:54:00,56.8,16.1,29.97,WNW,292,0.0,0.0,20,0.00,CLR,,0.00,WeatherDisplay:10.37,2013-03-13 17:54:00,
2013-03-13 13:59:00,56.3,15.7,29.97,North,0,0.0,0.0,20,0.00,CLR,,0.00,WeatherDisplay:10.37,2013-03-13 17:59:00,
2013-03-13 14:04:00,55.6,15.1,29.97,NW,315,2.6,0.0,20,0.00,CLR,,0.00,WeatherDisplay:10.37,2013-03-13 18:04:00,
2013-03-13 14:09:00,56.3,15.7,29.97,SSE,158,3.5,0.0,20,0.00,CLR,,0.00,WeatherDisplay:10.37,2013-03-13 18:09:00,
2013-03-13 14:14:00,57.9,15.8,29.97,ENE,68,0.0,0.0,19,0.00,CLR,,0.00,WeatherDisplay:10.37,2013-03-13 18:14:00,
2013-03-13 14:19:00,58.1,16.0,29.97,NW,315,0.0,0.0,19,0.00,CLR,,0.00,WeatherDisplay:10.37,2013-03-13 18:19:00,
2013-03-13 14:24:00,59.4,17.0,29.97,NNE,22,2.3,0.0,19,0.00,CLR,,0.00,WeatherDisplay:10.37,2013-03-13 18:24:00,
2013-03-13 14:29:00,59.4,17.0,29.94,NW,315,0.0,0.0,19,0.00,CLR,,0.00,WeatherDisplay:10.37,2013-03-13 18:29:00,
2013-03-13 14:34:00,59.4,17.0,29.94,North,0,0.0,0.0,19,0.00,CLR,,0.00,WeatherDisplay:10.37,2013-03-13 18:34:00,
2013-03-13 14:39:00,60.3,17.8,29.94,West,270,0.0,0.0,19,0.00,CLR,,0.00,WeatherDisplay:10.37,2013-03-13 18:39:00,
2013-03-13 14:44:00,60.3,17.8,29.94,NNW,338,2.3,0.0,19,0.00,CLR,,0.00,WeatherDisplay:10.37,2013-03-13 18:44:00,
2013-03-13 14:49:00,60.4,17.9,29.94,West,270,4.0,0.0,19,0.00,CLR,,0.00,WeatherDisplay:10.37,2013-03-13 18:49:00,
2013-03-13 14:54:00,60.1,17.6,29.94,North,0,3.5,0.0,19,0.00,CLR,,0.00,WeatherDisplay:10.37,2013-03-13 18:54:00,
2013-03-13 14:59:00,59.5,17.2,29.94,NNW,338,5.8,5.8,19,0.00,CLR,,0.00,WeatherDisplay:10.37,2013-03-13 18:59:00,
2013-03-13 15:04:00,59.7,17.3,29.94,WSW,248,0.0,0.0,19,0.00,CLR,,0.00,WeatherDisplay:10.37,2013-03-13 19:04:00,
2013-03-13 15:09:00,60.6,18.1,29.94,NNW,338,0.0,0.0,19,0.00,CLR,,0.00,WeatherDisplay:10.37,2013-03-13 19:09:00,
2013-03-13 15:14:00,60.1,15.1,29.94,NW,315,0.0,0.0,17,0.00,CLR,,0.00,WeatherDisplay:10.37,2013-03-13 19:14:00,
2013-03-13 15:19:00,59.0,16.7,29.94,WNW,292,0.0,0.0,19,0.00,CLR,,0.00,WeatherDisplay:10.37,2013-03-13 19:19:00,
2013-03-13 15:24:00,59.5,17.2,29.94,SE,135,4.6,4.6,19,0.00,CLR,,0.00,WeatherDisplay:10.37,2013-03-13 19:24:00,
2013-03-13 15:29:00,59.0,16.7,29.94,North,0,0.0,0.0,19,0.00,CLR,,0.00,WeatherDisplay:10.37,2013-03-13 19:29:00,
2013-03-13 15:34:00,57.0,16.3,29.94,NE,45,0.0,0.0,20,0.00,CLR,,0.00,WeatherDisplay:10.37,2013-03-13 19:34:00,
2013-03-13 15:39:00,58.1,16.0,29.94,ESE,112,2.3,0.0,19,0.00,CLR,,0.00,WeatherDisplay:10.37,2013-03-13 19:39:00,
2013-03-13 15:44:00,57.6,15.5,29.94,NW,315,0.0,0.0,19,0.00,CLR,,0.00,WeatherDisplay:10.37,2013-03-13 19:44:00,
2013-03-13 15:49:00,57.0,16.3,29.94,NE,45,0.0,0.0,20,0.00,CLR,,0.00,WeatherDisplay:10.37,2013-03-13 19:49:00,
2013-03-13 15:57:00,57.2,15.2,29.94,NNW,338,0.0,0.0,19,0.00,CLR,,0.00,WeatherDisplay:10.37,2013-03-13 19:57:00,
2013-03-13 16:02:00,57.6,15.5,29.94,SSE,158,2.6,0.0,19,0.00,CLR,,0.00,WeatherDisplay:10.37,2013-03-13 20:02:00,
2013-03-13 16:07:00,57.9,15.8,29.94,SE,135,0.0,0.0,19,0.00,CLR,,0.00,WeatherDisplay:10.37,2013-03-13 20:07:00,
2013-03-13 16:12:00,57.6,15.5,29.94,North,0,0.0,0.0,19,0.00,CLR,,0.00,WeatherDisplay:10.37,2013-03-13 20:12:00,
2013-03-13 16:17:00,57.2,15.2,29.94,WNW,292,0.0,0.0,19,0.00,CLR,,0.00,WeatherDisplay:10.37,2013-03-13 20:17:00,
2013-03-13 16:26:00,55.9,15.4,29.94,NE,45,0.0,0.0,20,0.00,CLR,,0.00,WeatherDisplay:10.37,2013-03-13 20:26:00,
2013-03-13 16:32:00,56.3,15.7,29.94,SE,135,0.0,0.0,20,0.00,CLR,,0.00,WeatherDisplay:10.37,2013-03-13 20:32:00,
2013-03-13 16:37:00,55.9,15.4,29.94,NW,315,2.3,0.0,20,0.00,CLR,,0.00,WeatherDisplay:10.37,2013-03-13 20:37:00,
2013-03-13 16:42:00,56.3,15.7,29.94,SSE,158,2.6,0.0,20,0.00,CLR,,0.00,WeatherDisplay:10.37,2013-03-13 20:42:00,
2013-03-13 16:47:00,56.3,15.7,29.94,WSW,248,4.6,0.0,20,0.00,CLR,,0.00,WeatherDisplay:10.37,2013-03-13 20:47:00,
2013-03-13 16:52:00,56.3,15.7,29.94,ESE,112,2.3,0.0,20,0.00,CLR,,0.00,WeatherDisplay:10.37,2013-03-13 20:52:00,
2013-03-13 16:57:00,56.5,15.8,29.94,West,270,3.5,0.0,20,0.00,CLR,,0.00,WeatherDisplay:10.37,2013-03-13 20:57:00,
2013-03-13 17:02:00,56.7,16.0,29.94,NNW,338,0.0,0.0,20,0.00,CLR,,0.00,WeatherDisplay:10.37,2013-03-13 21:02:00,
2013-03-13 17:07:00,55.9,15.4,29.94,North,0,0.0,0.0,20,0.00,CLR,,0.00,WeatherDisplay:10.37,2013-03-13 21:07:00,
2013-03-13 17:12:00,55.8,15.2,29.94,ESE,112,2.3,0.0,20,0.00,CLR,,0.00,WeatherDisplay:10.37,2013-03-13 21:12:00,
2013-03-13 17:17:00,55.2,12.4,29.94,NNW,338,0.0,0.0,18,0.00,CLR,,0.00,WeatherDisplay:10.37,2013-03-13 21:17:00,
2013-03-13 17:22:00,55.4,11.2,29.94,North,0,5.8,0.0,17,0.00,CLR,,0.00,WeatherDisplay:10.37,2013-03-13 21:22:00,
2013-03-13 17:27:00,55.6,11.4,29.94,NNW,338,0.0,0.0,17,0.00,CLR,,0.00,WeatherDisplay:10.37,2013-03-13 21:27:00,
2013-03-13 17:32:00,56.3,15.7,29.94,NW,315,2.6,0.0,20,0.00,CLR,,0.00,WeatherDisplay:10.37,2013-03-13 21:32:00,
2013-03-13 17:37:00,56.1,11.8,29.94,NW,315,0.0,0.0,17,0.00,CLR,,0.00,WeatherDisplay:10.37,2013-03-13 21:37:00,
2013-03-13 17:42:00,55.6,11.4,29.97,NW,315,0.0,0.0,17,0.00,CLR,,0.00,WeatherDisplay:10.37,2013-03-13 21:42:00,
2013-03-13 17:47:00,55.4,11.2,29.97,WNW,292,2.3,0.0,17,0.00,CLR,,0.00,WeatherDisplay:10.37,2013-03-13 21:47:00,
2013-03-13 17:52:00,55.0,12.2,29.97,ENE,68,0.0,0.0,18,0.00,CLR,,0.00,WeatherDisplay:10.37,2013-03-13 21:52:00,
2013-03-13 17:57:00,54.7,11.9,29.97,WSW,248,0.0,0.0,18,0.00,CLR,,0.00,WeatherDisplay:10.37,2013-03-13 21:57:00,
2013-03-13 18:02:00,54.0,13.7,29.97,WNW,292,4.6,0.0,20,0.00,CLR,,0.00,WeatherDisplay:10.37,2013-03-13 22:02:00,
2013-03-13 18:07:00,53.4,14.4,29.97,West,270,4.6,0.0,21,0.00,CLR,,0.00,WeatherDisplay:10.37,2013-03-13 22:07:00,
2013-03-13 18:12:00,53.2,14.2,29.97,NNW,338,0.0,0.0,21,0.00,CLR,,0.00,WeatherDisplay:10.37,2013-03-13 22:12:00,
2013-03-13 18:17:00,53.1,14.1,29.97,NW,315,0.0,0.0,21,0.00,CLR,,0.00,WeatherDisplay:10.37,2013-03-13 22:17:00,
2013-03-13 18:22:00,52.9,13.9,29.97,NNW,338,0.0,0.0,21,0.00,CLR,,0.00,WeatherDisplay:10.37,2013-03-13 22:22:00,
2013-03-13 18:27:00,52.7,13.8,29.97,NNW,338,3.5,0.0,21,0.00,CLR,,0.00,WeatherDisplay:10.37,2013-03-13 22:27:00,
2013-03-13 18:32:00,51.8,13.0,29.97,NW,315,0.0,0.0,21,0.00,CLR,,0.00,WeatherDisplay:10.37,2013-03-13 22:32:00,
2013-03-13 18:37:00,51.6,12.9,29.97,NW,315,0.0,0.0,21,0.00,CLR,,0.00,WeatherDisplay:10.37,2013-03-13 22:37:00,
2013-03-13 18:42:00,51.1,12.4,29.97,NNW,338,0.0,0.0,21,0.00,CLR,,0.00,WeatherDisplay:10.37,2013-03-13 22:42:00,
2013-03-13 18:47:00,50.7,12.1,29.97,WNW,292,0.0,0.0,21,0.00,CLR,,0.00,WeatherDisplay:10.37,2013-03-13 22:47:00,
2013-03-13 18:52:00,50.4,11.8,29.97,WNW,292,0.0,0.0,21,0.00,CLR,,0.00,WeatherDisplay:10.37,2013-03-13 22:52:00,
2013-03-13 18:57:00,50.0,14.6,30.00,NNE,22,0.0,0.0,24,0.00,CLR,,0.00,WeatherDisplay:10.37,2013-03-13 22:57:00,
2013-03-13 19:02:00,49.6,14.3,30.00,NNE,22,0.0,0.0,24,0.00,CLR,,0.00,WeatherDisplay:10.37,2013-03-13 23:02:00,
2013-03-13 19:07:00,49.5,14.1,30.00,NW,315,0.0,0.0,24,0.00,CLR,,0.00,WeatherDisplay:10.37,2013-03-13 23:07:00,
2013-03-13 19:12:00,49.3,10.9,30.00,NNW,338,0.0,0.0,21,0.00,CLR,,0.00,WeatherDisplay:10.37,2013-03-13 23:12:00,
2013-03-13 19:17:00,49.1,10.8,30.00,West,270,2.3,0.0,21,0.00,CLR,,0.00,WeatherDisplay:10.37,2013-03-13 23:17:00,
2013-03-13 19:22:00,48.7,10.5,30.00,North,0,0.0,0.0,21,0.00,CLR,,0.00,WeatherDisplay:10.37,2013-03-13 23:22:00,
2013-03-13 19:27:00,48.4,10.2,30.00,West,270,0.0,0.0,21,0.00,CLR,,0.00,WeatherDisplay:10.37,2013-03-13 23:27:00,
2013-03-13 19:32:00,47.8,10.8,30.00,West,270,0.0,0.0,22,0.00,CLR,,0.00,WeatherDisplay:10.37,2013-03-13 23:32:00,
2013-03-13 19:37:00,47.7,10.6,30.00,North,0,0.0,0.0,22,0.00,CLR,,0.00,WeatherDisplay:10.37,2013-03-13 23:37:00,
2013-03-13 19:42:00,47.3,10.3,30.03,West,270,0.0,0.0,22,0.00,CLR,,0.00,WeatherDisplay:10.37,2013-03-13 23:42:00,
2013-03-13 19:47:00,47.1,10.2,30.03,NNW,338,0.0,0.0,22,0.00,CLR,,0.00,WeatherDisplay:10.37,2013-03-13 23:47:00,
2013-03-13 19:52:00,46.9,10.0,30.03,WNW,292,0.0,0.0,22,0.00,CLR,,0.00,WeatherDisplay:10.37,2013-03-13 23:52:00,
2013-03-13 19:57:00,46.8,9.9,30.03,NNW,338,0.0,0.0,22,0.00,CLR,,0.00,WeatherDisplay:10.37,2013-03-13 23:57:00,
2013-03-13 20:02:00,46.4,11.5,30.03,NNW,338,0.0,0.0,24,0.00,CLR,,0.00,WeatherDisplay:10.37,2013-03-14 00:02:00,
2013-03-13 20:07:00,46.2,12.3,30.03,NW,315,0.0,0.0,25,0.00,CLR,,0.00,WeatherDisplay:10.37,2013-03-14 00:07:00,
2013-03-13 20:12:00,46.0,12.1,30.03,NW,315,0.0,0.0,25,0.00,CLR,,0.00,WeatherDisplay:10.37,2013-03-14 00:12:00,
2013-03-13 20:17:00,45.9,12.0,30.03,NNE,22,0.0,0.0,25,0.00,CLR,,0.00,WeatherDisplay:10.37,2013-03-14 00:17:00,
2013-03-13 20:22:00,45.3,11.5,30.03,NNE,22,0.0,0.0,25,0.00,CLR,,0.00,WeatherDisplay:10.37,2013-03-14 00:22:00,
2013-03-13 20:27:00,45.3,11.5,30.03,North,0,0.0,0.0,25,0.00,CLR,,0.00,WeatherDisplay:10.37,2013-03-14 00:27:00,
2013-03-13 20:32:00,45.1,11.3,30.03,NW,315,0.0,0.0,25,0.00,CLR,,0.00,WeatherDisplay:10.37,2013-03-14 00:32:00,
2013-03-13 20:37:00,44.8,11.0,30.03,NNW,338,0.0,0.0,25,0.00,CLR,,0.00,WeatherDisplay:10.37,2013-03-14 00:37:00,
2013-03-13 20:42:00,44.6,10.9,30.03,NNW,338,0.0,0.0,25,0.00,CLR,,0.00,WeatherDisplay:10.37,2013-03-14 00:42:00,
2013-03-13 20:47:00,44.6,10.9,30.03,NW,315,0.0,0.0,25,0.00,CLR,,0.00,WeatherDisplay:10.37,2013-03-14 00:47:00,
2013-03-13 20:52:00,44.2,10.6,30.03,NW,315,0.0,0.0,25,0.00,CLR,,0.00,WeatherDisplay:10.37,2013-03-14 00:52:00,
2013-03-13 20:57:00,43.9,10.3,30.03,NW,315,0.0,0.0,25,0.00,CLR,,0.00,WeatherDisplay:10.37,2013-03-14 00:57:00,
2013-03-13 21:02:00,43.7,10.1,30.03,WNW,292,0.0,0.0,25,0.00,CLR,,0.00,WeatherDisplay:10.37,2013-03-14 01:02:00,
2013-03-13 21:07:00,43.5,10.0,30.03,North,0,0.0,0.0,25,0.00,CLR,,0.00,WeatherDisplay:10.37,2013-03-14 01:07:00,
2013-03-13 21:12:00,43.5,12.5,30.06,NW,315,0.0,0.0,28,0.00,CLR,,0.00,WeatherDisplay:10.37,2013-03-14 01:12:00,
2013-03-13 21:17:00,43.3,12.4,30.06,WNW,292,0.0,0.0,28,0.00,CLR,,0.00,WeatherDisplay:10.37,2013-03-14 01:17:00,
2013-03-13 21:22:00,43.0,12.0,30.06,WNW,292,0.0,0.0,28,0.00,CLR,,0.00,WeatherDisplay:10.37,2013-03-14 01:22:00,
2013-03-13 21:27:00,43.0,12.0,30.06,NW,315,0.0,0.0,28,0.00,CLR,,0.00,WeatherDisplay:10.37,2013-03-14 01:27:00,
2013-03-13 21:32:00,42.6,11.7,30.06,North,0,0.0,0.0,28,0.00,CLR,,0.00,WeatherDisplay:10.37,2013-03-14 01:32:00,
2013-03-13 21:37:00,42.3,11.4,30.06,North,0,0.0,0.0,28,0.00,CLR,,0.00,WeatherDisplay:10.37,2013-03-14 01:37:00,
2013-03-13 21:42:00,42.1,12.1,30.06,NNE,22,0.0,0.0,29,0.00,CLR,,0.00,WeatherDisplay:10.37,2013-03-14 01:42:00,
2013-03-13 21:47:00,41.9,11.9,30.06,NW,315,0.0,0.0,29,0.00,CLR,,0.00,WeatherDisplay:10.37,2013-03-14 01:47:00,
2013-03-13 21:52:00,41.7,11.7,30.06,NNW,338,0.0,0.0,29,0.00,CLR,,0.00,WeatherDisplay:10.37,2013-03-14 01:52:00,
2013-03-13 21:58:00,41.4,11.4,30.06,NNW,338,0.0,0.0,29,0.00,CLR,,0.00,WeatherDisplay:10.37,2013-03-14 01:58:00,
2013-03-13 22:03:00,41.4,11.4,30.06,WNW,292,0.0,0.0,29,0.00,CLR,,0.00,WeatherDisplay:10.37,2013-03-14 02:03:00,
2013-03-13 22:08:00,41.2,11.3,30.06,NW,315,0.0,0.0,29,0.00,CLR,,0.00,WeatherDisplay:10.37,2013-03-14 02:08:00,
2013-03-13 22:13:00,41.0,11.1,30.09,NNW,338,0.0,0.0,29,0.00,CLR,,0.00,WeatherDisplay:10.37,2013-03-14 02:13:00,
2013-03-13 22:18:00,40.8,11.0,30.09,WNW,292,0.0,0.0,29,0.00,CLR,,0.00,WeatherDisplay:10.37,2013-03-14 02:18:00,
2013-03-13 22:23:00,40.8,11.0,30.09,NW,315,0.0,0.0,29,0.00,CLR,,0.00,WeatherDisplay:10.37,2013-03-14 02:23:00,
2013-03-13 22:28:00,40.6,10.8,30.09,NNW,338,0.0,0.0,29,0.00,CLR,,0.00,WeatherDisplay:10.37,2013-03-14 02:28:00,
2013-03-13 22:33:00,40.5,10.7,30.09,WNW,292,0.0,0.0,29,0.00,CLR,,0.00,WeatherDisplay:10.37,2013-03-14 02:33:00,
2013-03-13 22:38:00,40.3,10.5,30.09,NNW,338,0.0,0.0,29,0.00,CLR,,0.00,WeatherDisplay:10.37,2013-03-14 02:38:00,
2013-03-13 22:43:00,40.1,10.3,30.09,NNE,22,3.5,0.0,29,0.00,CLR,,0.00,WeatherDisplay:10.37,2013-03-14 02:43:00,
2013-03-13 22:48:00,39.7,10.0,30.09,NW,315,0.0,0.0,29,0.00,CLR,,0.00,WeatherDisplay:10.37,2013-03-14 02:48:00,
2013-03-13 22:53:00,39.4,9.7,30.09,NW,315,0.0,0.0,29,0.00,CLR,,0.00,WeatherDisplay:10.37,2013-03-14 02:53:00,
2013-03-13 22:58:00,39.4,9.7,30.09,North,0,0.0,0.0,29,0.00,CLR,,0.00,WeatherDisplay:10.37,2013-03-14 02:58:00,
2013-03-13 23:03:00,39.2,9.6,30.09,NNW,338,0.0,0.0,29,0.00,CLR,,0.00,WeatherDisplay:10.37,2013-03-14 03:03:00,
2013-03-13 23:08:00,39.0,10.2,30.09,North,0,0.0,0.0,30,0.00,CLR,,0.00,WeatherDisplay:10.37,2013-03-14 03:08:00,
2013-03-13 23:13:00,38.8,10.0,30.09,NW,315,0.0,0.0,30,0.00,CLR,,0.00,WeatherDisplay:10.37,2013-03-14 03:13:00,
2013-03-13 23:18:00,38.7,9.8,30.09,NNW,338,0.0,0.0,30,0.00,CLR,,0.00,WeatherDisplay:10.37,2013-03-14 03:18:00,
2013-03-13 23:23:00,38.5,9.7,30.09,NNW,338,0.0,0.0,30,0.00,CLR,,0.00,WeatherDisplay:10.37,2013-03-14 03:23:00,
2013-03-13 23:28:00,38.3,9.5,30.12,NNW,338,0.0,0.0,30,0.00,CLR,,0.00,WeatherDisplay:10.37,2013-03-14 03:28:00,
2013-03-13 23:33:00,38.1,9.4,30.12,SE,135,3.5,0.0,30,0.00,CLR,,0.00,WeatherDisplay:10.37,2013-03-14 03:33:00,
2013-03-13 23:38:00,37.8,9.1,30.12,NNW,338,2.3,0.0,30,0.00,CLR,,0.00,WeatherDisplay:10.37,2013-03-14 03:38:00,
2013-03-13 23:43:00,37.8,9.1,30.12,NNW,338,0.0,0.0,30,0.00,CLR,,0.00,WeatherDisplay:10.37,2013-03-14 03:43:00,
2013-03-13 23:48:00,37.6,8.9,30.12,SSW,202,0.0,0.0,30,0.00,CLR,,0.00,WeatherDisplay:10.37,2013-03-14 03:48:00,
2013-03-13 23:53:00,37.4,8.7,30.12,NW,315,0.0,0.0,30,0.00,CLR,,0.00,WeatherDisplay:10.37,2013-03-14 03:53:00,
2013-03-13 23:58:00,37.2,8.6,30.12,WNW,292,0.0,0.0,30,0.00,CLR,,0.00,WeatherDisplay:10.37,2013-03-14 03:58:00,